| time (UTC) | temp F | wind direction | speed MPH | gust MPH | rain 1hr in | rain 24hr in | rain mn in | humidity % | barometer mb |
| 20260902181403 | 93 | 263 | 5.0 | 10.0 | 0.00 | 0.00 | 0.00 | 1016.6 | |
| 20260902180903 | 93 | 286 | 3.0 | 7.0 | 0.00 | 0.00 | 0.00 | 1016.6 | |
| 20260902180403 | 92 | 233 | 3.0 | 10.0 | 0.00 | 0.00 | 0.00 | 1016.3 | |
| 20260902175903 | 91 | 280 | 5.0 | 10.0 | 0.00 | 0.00 | 0.00 | 1016.6 | |
| 20260902175425 | 92 | 257 | 3.0 | 7.0 | 0.00 | 0.00 | 0.00 | 1016.6 | |
| 20260902174903 | 92 | 194 | 2.0 | 7.0 | 0.00 | 0.00 | 0.00 | 1016.3 | |
| 20260902174403 | 91 | 267 | 3.0 | 7.0 | 0.00 | 0.00 | 0.00 | 1017.0 | |
| 20260902173903 | 91 | 267 | 3.0 | 9.0 | 0.00 | 0.00 | 0.00 | 1016.6 | |
| 20260902173403 | 91 | 293 | 5.0 | 9.0 | 0.00 | 0.00 | 0.00 | 1017.0 | |
| 20260902172924 | 91 | 272 | 4.0 | 10.0 | 0.00 | 0.00 | 0.00 | 1017.3 | |
| 20260902172403 | 91 | 290 | 5.0 | 10.0 | 0.00 | 0.00 | 0.00 | 1017.3 | |
| 20260902171902 | 91 | 256 | 2.0 | 13.0 | 0.00 | 0.00 | 0.00 | 1017.3 | |
| 20260902171424 | 91 | 295 | 3.0 | 13.0 | 0.00 | 0.00 | 0.00 | 1017.0 | |
| 20260902170902 | 91 | 295 | 7.0 | 12.0 | 0.00 | 0.00 | 0.00 | 1017.3 | |
| 20260902170403 | 91 | 271 | 5.0 | 12.0 | 0.00 | 0.00 | 0.00 | 1017.6 | |
| 20260902165903 | 91 | 188 | 2.0 | 9.0 | 0.00 | 0.00 | 0.00 | 1017.6 | |
| 20260902165402 | 91 | 199 | 1.0 | 11.0 | 0.00 | 0.00 | 0.00 | 1017.0 | |
| 20260902164903 | 90 | 278 | 3.0 | 11.0 | 0.00 | 0.00 | 0.00 | 1017.3 | |
| 20260902164402 | 91 | 287 | 4.0 | 8.0 | 0.00 | 0.00 | 0.00 | 1018.0 | |
| 20260902163903 | 91 | 262 | 2.0 | 9.0 | 0.00 | 0.00 | 0.00 | 1017.6 | |
| 20260902163403 | 90 | 259 | 3.0 | 9.0 | 0.00 | 0.00 | 0.00 | 1018.0 | |
| 20260902162903 | 90 | 255 | 3.0 | 9.0 | 0.00 | 0.00 | 0.00 | 1017.6 | |
| 20260902162445 | 90 | 262 | 2.0 | 9.0 | 0.00 | 0.00 | 0.00 | 1017.6 | |
| 20260902161924 | 89 | 285 | 4.0 | 10.0 | 0.00 | 0.00 | 0.00 | 1018.0 | |
| 20260902161403 | 90 | 291 | 4.0 | 10.0 | 0.00 | 0.00 | 0.00 | 1017.6 | |
| 20260902160903 | 89 | 291 | 6.0 | 9.0 | 0.00 | 0.00 | 0.00 | 1017.6 | |
| 20260902160403 | 89 | 279 | 5.0 | 10.0 | 0.00 | 0.00 | 0.00 | 1017.6 | |
| 20260902155903 | 88 | 271 | 3.0 | 10.0 | 0.00 | 0.00 | 0.00 | 1017.6 | |
| 20260902155402 | 88 | 233 | 3.0 | 12.0 | 0.00 | 0.00 | 0.00 | 1017.3 | |
| 20260902154903 | 88 | 261 | 4.0 | 12.0 | 0.00 | 0.00 | 0.00 | 1017.3 | |
| 20260902154402 | 88 | 303 | 4.0 | 7.0 | 0.00 | 0.00 | 0.00 | 1018.0 | |
| 20260902153903 | 88 | 263 | 3.0 | 7.0 | 0.00 | 0.00 | 0.00 | 1017.6 | |
| 20260902153403 | 88 | 183 | 3.0 | 6.0 | 0.00 | 0.00 | 0.00 | 1018.0 | |
| 20260902152903 | 88 | 175 | 0.0 | 8.0 | 0.00 | 0.00 | 0.00 | 1018.0 | |
| 20260902152403 | 87 | 219 | 1.0 | 8.0 | 0.00 | 0.00 | 0.00 | 1018.0 | |
| 20260902151904 | 87 | 233 | 1.0 | 7.0 | 0.00 | 0.00 | 0.00 | 1018.0 | |
| 20260902151403 | 87 | 279 | 2.0 | 7.0 | 0.00 | 0.00 | 0.00 | 1017.6 | |
| 20260902150903 | 87 | 202 | 2.0 | 5.0 | 0.00 | 0.00 | 0.00 | 1018.0 | |
| 20260902150403 | 86 | 201 | 2.0 | 9.0 | 0.00 | 0.00 | 0.00 | 1017.6 | |
| 20260902145924 | 86 | 276 | 3.0 | 9.0 | 0.00 | 0.00 | 0.00 | 1017.6 | |
| 20260902145403 | 86 | 202 | 1.0 | 7.0 | 0.00 | 0.00 | 0.00 | 1018.0 | |
| 20260902144903 | 86 | 215 | 2.0 | 7.0 | 0.00 | 0.00 | 0.00 | 1018.0 | |
| 20260902144403 | 86 | 282 | 3.0 | 7.0 | 0.00 | 0.00 | 0.00 | 1018.0 | |
| 20260902143902 | 85 | 280 | 3.0 | 6.0 | 0.00 | 0.00 | 0.00 | 1017.6 | |
| 20260902143403 | 85 | 281 | 3.0 | 8.0 | 0.00 | 0.00 | 0.00 | 1018.0 | |
| 20260902142904 | 85 | 289 | 1.0 | 8.0 | 0.00 | 0.00 | 0.00 | 1017.6 | |
| 20260902142403 | 84 | 288 | 3.0 | 8.0 | 0.00 | 0.00 | 0.00 | 1017.6 | |
| 20260902141924 | 84 | 292 | 4.0 | 8.0 | 0.00 | 0.00 | 0.00 | 1018.0 | |
| 20260902141402 | 83 | 272 | 5.0 | 9.0 | 0.00 | 0.00 | 0.00 | 1018.3 | |
| 20260902140903 | 83 | 290 | 6.0 | 9.0 | 0.00 | 0.00 | 0.00 | 1018.3 | |
| 20260902140402 | 83 | 279 | 4.0 | 9.0 | 0.00 | 0.00 | 0.00 | 1018.0 | |
| 20260902135903 | 83 | 295 | 5.0 | 10.0 | 0.00 | 0.00 | 0.00 | 1018.0 | |
| 20260902135404 | 82 | 290 | 5.0 | 10.0 | 0.00 | 0.00 | 0.00 | 1017.3 | |
| 20260902134903 | 83 | 249 | 3.0 | 9.0 | 0.00 | 0.00 | 0.00 | 1017.6 | |
| 20260902134424 | 82 | 258 | 2.0 | 10.0 | 0.00 | 0.00 | 0.00 | 1018.0 | |
| 20260902133902 | 83 | 291 | 4.0 | 10.0 | 0.00 | 0.00 | 0.00 | 1018.0 | |
| 20260902133403 | 82 | 285 | 2.0 | 9.0 | 0.00 | 0.00 | 0.00 | 1017.6 | |
| 20260902132904 | 82 | 281 | 3.0 | 9.0 | 0.00 | 0.00 | 0.00 | 1018.0 | |
| 20260902132403 | 82 | 134 | 0.0 | 11.0 | 0.00 | 0.00 | 0.00 | 1018.0 | |
| 20260902131925 | 82 | 286 | 1.0 | 11.0 | 0.00 | 0.00 | 0.00 | 1018.0 | |
| 20260902131402 | 82 | 263 | 3.0 | 9.0 | 0.00 | 0.00 | 0.00 | 1017.6 | |
| 20260902130924 | 82 | 272 | 3.0 | 9.0 | 0.00 | 0.00 | 0.00 | 1017.6 | |
| 20260902130403 | 82 | 223 | 2.0 | 7.0 | 0.00 | 0.00 | 0.00 | 1017.6 | |
| 20260902125903 | 81 | 231 | 2.0 | 7.0 | 0.00 | 0.00 | 0.00 | 1018.0 | |
| 20260902125403 | 81 | 234 | 0.0 | 7.0 | 0.00 | 0.00 | 0.00 | 1017.6 | |
| 20260902124903 | 80 | 262 | 3.0 | 7.0 | 0.00 | 0.00 | 0.00 | 1018.0 | |
| 20260902124403 | 80 | 276 | 1.0 | 5.0 | 0.00 | 0.00 | 0.00 | 1017.6 | |
| 20260902123903 | 80 | 270 | 0.0 | 6.0 | 0.00 | 0.00 | 0.00 | 1017.3 | |
| 20260902123403 | 80 | 219 | 2.0 | 6.0 | 0.00 | 0.00 | 0.00 | 1017.3 | |
| 20260902122902 | 79 | 257 | 2.0 | 5.0 | 0.00 | 0.00 | 0.00 | 1017.0 | |
| 20260902122403 | 79 | 211 | 0.0 | 6.0 | 0.00 | 0.00 | 0.00 | 1017.0 | |
| 20260902121902 | 79 | 262 | 1.0 | 6.0 | 0.00 | 0.00 | 0.00 | 1017.3 | |
| 20260902121403 | 79 | 236 | 2.0 | 3.0 | 0.00 | 0.00 | 0.00 | 1017.6 | |
| 20260902120924 | 78 | 230 | 1.0 | 5.0 | 0.00 | 0.00 | 0.00 | 1017.6 | |
| 20260902120403 | 78 | 213 | 0.0 | 5.0 | 0.00 | 0.00 | 0.00 | 1017.6 | |
| 20260902115903 | 78 | 205 | 0.0 | 2.0 | 0.00 | 0.00 | 0.00 | 1017.0 | |
| 20260902115403 | 78 | 175 | 0.0 | 2.0 | 0.00 | 0.00 | 0.00 | 1017.0 | |
| 20260902114903 | 77 | 195 | 0.0 | 2.0 | 0.00 | 0.00 | 0.00 | 1016.6 | |
| 20260902114403 | 77 | 201 | 1.0 | 3.0 | 0.00 | 0.00 | 0.00 | 1016.6 | |
| 20260902113903 | 77 | 215 | 0.0 | 6.0 | 0.00 | 0.00 | 0.00 | 1016.6 | |
| 20260902112403 | 77 | 209 | 0.0 | 2.0 | 0.00 | 0.00 | 0.00 | 1016.6 | |
| 20260902111903 | 77 | 199 | 0.0 | 2.0 | 0.00 | 0.00 | 0.00 | 1016.6 | |
| 20260902111403 | 77 | 192 | 0.0 | 2.0 | 0.00 | 0.00 | 0.00 | 1016.6 | |
| 20260902110902 | 77 | 183 | 0.0 | 4.0 | 0.00 | 0.00 | 0.00 | 1016.6 | |
| 20260902110403 | 77 | 198 | 0.0 | 4.0 | 0.00 | 0.00 | 0.00 | 1017.3 | |
| 20260902105925 | 77 | 199 | 1.0 | 3.0 | 0.00 | 0.00 | 0.00 | 1016.6 | |
| 20260902105402 | 77 | 193 | 0.0 | 5.0 | 0.00 | 0.00 | 0.00 | 1016.3 | |
| 20260902104903 | 77 | 193 | 0.0 | 5.0 | 0.00 | 0.00 | 0.00 | 1016.6 | |
| 20260902104424 | 77 | 201 | 0.0 | 5.0 | 0.00 | 0.00 | 0.00 | 1016.6 | |
| 20260902103924 | 77 | 205 | 0.0 | 5.0 | 0.00 | 0.00 | 0.00 | 1016.6 | |
| 20260902103403 | 78 | 202 | 0.0 | 3.0 | 0.00 | 0.00 | 0.00 | 1017.0 | |
| 20260902102903 | 78 | 225 | 0.0 | 3.0 | 0.00 | 0.00 | 0.00 | 1017.0 | |
| 20260902102445 | 78 | 197 | 0.0 | 2.0 | 0.00 | 0.00 | 0.00 | 1017.3 | |
| 20260902101903 | 78 | 182 | 0.0 | 3.0 | 0.00 | 0.00 | 0.00 | 1017.3 | |
| 20260902101403 | 78 | 197 | 0.0 | 3.0 | 0.00 | 0.00 | 0.00 | 1017.0 | |
| 20260902100903 | 78 | 201 | 0.0 | 5.0 | 0.00 | 0.00 | 0.00 | 1017.0 | |
| 20260902100403 | 78 | 200 | 0.0 | 5.0 | 0.00 | 0.00 | 0.00 | 1017.3 | |
| 20260902095903 | 78 | 211 | 0.0 | 4.0 | 0.00 | 0.00 | 0.00 | 1016.6 | |
| 20260902095403 | 78 | 200 | 0.0 | 6.0 | 0.00 | 0.00 | 0.00 | 1016.6 | |
| 20260902094904 | 78 | 202 | 0.0 | 6.0 | 0.00 | 0.00 | 0.00 | 1016.6 | |
| 20260902094403 | 78 | 202 | 0.0 | 5.0 | 0.00 | 0.00 | 0.00 | 1017.0 | |
| 20260902093903 | 78 | 231 | 0.0 | 5.0 | 0.00 | 0.00 | 0.00 | 1017.0 | |
| 20260902093403 | 78 | 213 | 0.0 | 3.0 | 0.00 | 0.00 | 0.00 | 1016.6 | |
| 20260902092903 | 78 | 215 | 0.0 | 6.0 | 0.00 | 0.00 | 0.00 | 1017.0 | |
| 20260902092403 | 78 | 202 | 0.0 | 6.0 | 0.00 | 0.00 | 0.00 | 1016.6 | |
| 20260902091903 | 78 | 210 | 0.0 | 6.0 | 0.00 | 0.00 | 0.00 | 1017.0 | |
| 20260902091402 | 78 | 212 | 0.0 | 6.0 | 0.00 | 0.00 | 0.00 | 1016.6 | |
| 20260902090903 | 78 | 203 | 0.0 | 6.0 | 0.00 | 0.00 | 0.00 | 1016.6 | |
| 20260902090402 | 78 | 359 | 0.0 | 6.0 | 0.00 | 0.00 | 0.00 | 1017.3 | |
| 20260902085903 | 78 | 212 | 0.0 | 6.0 | 0.00 | 0.00 | 0.00 | 1016.3 | |
| 20260902085403 | 78 | 205 | 0.0 | 6.0 | 0.00 | 0.00 | 0.00 | 1016.6 | |
| 20260902084903 | 78 | 229 | 0.0 | 6.0 | 0.00 | 0.00 | 0.00 | 1016.3 | |
| 20260902084424 | 79 | 202 | 0.0 | 6.0 | 0.00 | 0.00 | 0.00 | 1016.6 | |
| 20260902083924 | 78 | 223 | 0.0 | 6.0 | 0.00 | 0.00 | 0.00 | 1016.3 | |
| 20260902083424 | 78 | 250 | 1.0 | 6.0 | 0.00 | 0.00 | 0.00 | 1017.0 | |
| 20260902082903 | 78 | 207 | 0.0 | 2.0 | 0.00 | 0.00 | 0.00 | 1016.3 | |
| 20260902082403 | 78 | 212 | 0.0 | 6.0 | 0.00 | 0.00 | 0.00 | 1016.6 | |
| 20260902081903 | 78 | 205 | 0.0 | 6.0 | 0.00 | 0.00 | 0.00 | 1016.6 | |
| 20260902081402 | 78 | 201 | 0.0 | 4.0 | 0.00 | 0.00 | 0.00 | 1016.3 | |
| 20260902080903 | 78 | 210 | 0.0 | 6.0 | 0.00 | 0.00 | 0.00 | 1016.3 | |
| 20260902080402 | 78 | 199 | 0.0 | 6.0 | 0.00 | 0.00 | 0.00 | 1016.3 | |
| 20260902075903 | 78 | 277 | 0.0 | 6.0 | 0.00 | 0.00 | 0.00 | 1016.3 | |
| 20260902075424 | 78 | 218 | 0.0 | 6.0 | 0.00 | 0.00 | 0.00 | 1016.0 | |
| 20260902074903 | 79 | 209 | 0.0 | 6.0 | 0.00 | 0.00 | 0.00 | 1016.0 | |
| 20260902074403 | 79 | 202 | 0.0 | 6.0 | 0.00 | 0.00 | 0.00 | 1016.0 | |
| 20260902073902 | 79 | 199 | 0.0 | 6.0 | 0.00 | 0.00 | 0.00 | 1016.0 | |
| 20260902073403 | 79 | 202 | 0.0 | 6.0 | 0.00 | 0.00 | 0.00 | 1016.0 | |
| 20260902072902 | 79 | 202 | 0.0 | 6.0 | 0.00 | 0.00 | 0.00 | 1016.3 | |
| 20260902072403 | 79 | 207 | 0.0 | 6.0 | 0.00 | 0.00 | 0.00 | 1016.0 | |
| 20260902071903 | 79 | 201 | 0.0 | 6.0 | 0.00 | 0.00 | 0.00 | 1016.3 | |
| 20260902071403 | 79 | 202 | 0.0 | 6.0 | 0.00 | 0.00 | 0.00 | 1016.0 | |
| 20260902070903 | 79 | 204 | 0.0 | 6.0 | 0.00 | 0.00 | 0.00 | 1016.0 | |
| 20260902070403 | 79 | 190 | 0.0 | 6.0 | 0.00 | 0.00 | 0.00 | 1016.3 | |
| 20260902065903 | 80 | 199 | 0.0 | 6.0 | 0.00 | 0.00 | 0.00 | 1016.0 | |
| 20260902065403 | 80 | 210 | 1.0 | 6.0 | 0.00 | 0.00 | 0.00 | 1016.3 | |
| 20260902064903 | 80 | 205 | 0.0 | 6.0 | 0.00 | 0.00 | 0.00 | 1016.3 | |
| 20260902064424 | 80 | 188 | 0.0 | 6.0 | 0.00 | 0.00 | 0.00 | 1016.0 | |
| 20260902063926 | 80 | 260 | 0.0 | 6.0 | 0.00 | 0.00 | 0.00 | 1016.6 | |
| 20260902063403 | 80 | 246 | 0.0 | 6.0 | 0.00 | 0.00 | 0.00 | 1016.0 | |
| 20260902062903 | 80 | 217 | 0.0 | 6.0 | 0.00 | 0.00 | 0.00 | 1016.0 | |
| 20260902062402 | 80 | 262 | 0.0 | 2.0 | 0.00 | 0.00 | 0.00 | 1016.3 | |
| 20260902061903 | 80 | 202 | 0.0 | 4.0 | 0.00 | 0.00 | 0.00 | 1016.3 | |
| 20260902061403 | 80 | 222 | 0.0 | 6.0 | 0.00 | 0.00 | 0.00 | 1016.0 | |
| 20260902060903 | 81 | 246 | 0.0 | 6.0 | 0.00 | 0.00 | 0.00 | 1016.3 | |
| 20260902060424 | 81 | 267 | 0.0 | 6.0 | 0.00 | 0.00 | 0.00 | 1016.0 | |
| 20260902055903 | 81 | 211 | 0.0 | 6.0 | 0.00 | 0.00 | 0.00 | 1015.6 | |
| 20260902055403 | 81 | 248 | 1.0 | 4.0 | 0.00 | 0.00 | 0.00 | 1015.6 | |
| 20260902054903 | 81 | 205 | 0.0 | 6.0 | 0.00 | 0.00 | 0.00 | 1016.3 | |
| 20260902054424 | 81 | 113 | 0.0 | 6.0 | 0.00 | 0.00 | 0.00 | 1016.0 | |
| 20260902053902 | 81 | 246 | 0.0 | 4.0 | 0.00 | 0.00 | 0.00 | 1016.3 | |
| 20260902053403 | 81 | 165 | 0.0 | 6.0 | 0.00 | 0.00 | 0.00 | 1016.6 | |
| 20260902052902 | 81 | 179 | 0.0 | 6.0 | 0.00 | 0.00 | 0.00 | 1016.0 | |
| 20260902052424 | 81 | 178 | 0.0 | 6.0 | 0.00 | 0.00 | 0.00 | 1016.0 | |
| 20260902051902 | 81 | 208 | 0.0 | 6.0 | 0.00 | 0.00 | 0.00 | 1016.3 | |
| 20260902051403 | 81 | 227 | 0.0 | 6.0 | 0.00 | 0.00 | 0.00 | 1016.0 | |
| 20260902050902 | 81 | 221 | 0.0 | 6.0 | 0.00 | 0.00 | 0.00 | 1016.3 | |
| 20260902050403 | 81 | 221 | 0.0 | 4.0 | 0.00 | 0.00 | 0.00 | 1016.6 | |
| 20260902045924 | 81 | 199 | 0.0 | 5.0 | 0.00 | 0.00 | 0.00 | 1016.0 | |
| 20260902045403 | 81 | 202 | 0.0 | 5.0 | 0.00 | 0.00 | 0.00 | 1016.3 | |
| 20260902044903 | 81 | 197 | 0.0 | 4.0 | 0.00 | 0.00 | 0.00 | 1016.0 | |
| 20260902044403 | 81 | 207 | 0.0 | 6.0 | 0.00 | 0.00 | 0.00 | 1016.3 | |
| 20260902043903 | 81 | 203 | 0.0 | 6.0 | 0.00 | 0.00 | 0.00 | 1016.3 | |
| 20260902042403 | 82 | 206 | 0.0 | 6.0 | 0.00 | 0.00 | 0.00 | 1016.3 | |
| 20260902041903 | 82 | 207 | 0.0 | 6.0 | 0.00 | 0.00 | 0.00 | 1016.6 | |
| 20260902041403 | 82 | 202 | 0.0 | 5.0 | 0.00 | 0.00 | 0.00 | 1016.6 | |
| 20260902040902 | 82 | 220 | 0.0 | 3.0 | 0.00 | 0.00 | 0.00 | 1017.0 | |
| 20260902040424 | 82 | 199 | 0.0 | 4.0 | 0.00 | 0.00 | 0.00 | 1016.6 | |
| 20260902035903 | 82 | 196 | 0.0 | 4.0 | 0.00 | 0.00 | 0.00 | 1016.6 | |
| 20260902035431 | 82 | 205 | 0.0 | 3.0 | 0.00 | 0.00 | 0.00 | 1016.3 | |
| 20260902034924 | 82 | 211 | 0.0 | 3.0 | 0.00 | 0.00 | 0.00 | 1016.3 | |
| 20260902034402 | 82 | 202 | 0.0 | 3.0 | 0.00 | 0.00 | 0.00 | 1016.0 | |
| 20260902033924 | 82 | 202 | 0.0 | 6.0 | 0.00 | 0.00 | 0.00 | 1016.3 | |
| 20260902033403 | 82 | 202 | 1.0 | 6.0 | 0.00 | 0.00 | 0.00 | 1016.3 | |
| 20260902032903 | 83 | 248 | 0.0 | 4.0 | 0.00 | 0.00 | 0.00 | 1016.3 | |
| 20260902032403 | 83 | 315 | 0.0 | 4.0 | 0.00 | 0.00 | 0.00 | 1016.6 | |
| 20260902031903 | 83 | 225 | 0.0 | 6.0 | 0.00 | 0.00 | 0.00 | 1016.6 | |
| 20260902031402 | 83 | 213 | 0.0 | 6.0 | 0.00 | 0.00 | 0.00 | 1016.3 | |
| 20260902030903 | 83 | 213 | 0.0 | 3.0 | 0.00 | 0.00 | 0.00 | 1016.6 | |
| 20260902030403 | 83 | 206 | 0.0 | 5.0 | 0.00 | 0.00 | 0.00 | 1017.0 | |
| 20260902025903 | 83 | 212 | 0.0 | 5.0 | 0.00 | 0.00 | 0.00 | 1016.6 | |
| 20260902025403 | 83 | 202 | 0.0 | 6.0 | 0.00 | 0.00 | 0.00 | 1016.3 | |
| 20260902024903 | 83 | 205 | 1.0 | 6.0 | 0.00 | 0.00 | 0.00 | 1016.6 | |
| 20260902024403 | 84 | 205 | 0.0 | 6.0 | 0.00 | 0.00 | 0.00 | 1016.3 | |
| 20260902023903 | 84 | 201 | 0.0 | 6.0 | 0.00 | 0.00 | 0.00 | 1017.0 | |
| 20260902023403 | 84 | 187 | 0.0 | 6.0 | 0.00 | 0.00 | 0.00 | 1016.3 | |
| 20260902022902 | 84 | 202 | 0.0 | 6.0 | 0.00 | 0.00 | 0.00 | 1016.3 | |
| 20260902022403 | 84 | 180 | 0.0 | 3.0 | 0.00 | 0.00 | 0.00 | 1016.6 | |
| 20260902021903 | 84 | 202 | 0.0 | 3.0 | 0.00 | 0.00 | 0.00 | 1016.6 | |
| 20260902021402 | 84 | 173 | 0.0 | 3.0 | 0.00 | 0.00 | 0.00 | 1016.3 | |
| 20260902020903 | 84 | 224 | 0.0 | 3.0 | 0.00 | 0.00 | 0.00 | 1016.6 | |
| 20260902020403 | 84 | 216 | 0.0 | 3.0 | 0.00 | 0.00 | 0.00 | 1016.6 | |
| 20260902015903 | 84 | 158 | 0.0 | 6.0 | 0.00 | 0.00 | 0.00 | 1016.3 | |
| 20260902015425 | 84 | 224 | 0.0 | 6.0 | 0.00 | 0.00 | 0.00 | 1016.0 | |
| 20260902014903 | 84 | 221 | 0.0 | 6.0 | 0.00 | 0.00 | 0.00 | 1016.3 | |
| 20260902014403 | 84 | 210 | 0.0 | 3.0 | 0.00 | 0.00 | 0.00 | 1016.0 | |
| 20260902013924 | 85 | 198 | 0.0 | 0.0 | 0.00 | 0.00 | 0.00 | 1016.0 | |
| 20260902013403 | 85 | 225 | 0.0 | 1.0 | 0.00 | 0.00 | 0.00 | 1015.6 | |
| 20260902012903 | 85 | 235 | 0.0 | 1.0 | 0.00 | 0.00 | 0.00 | 1016.0 | |
| 20260902012403 | 85 | 248 | 0.0 | 1.0 | 0.00 | 0.00 | 0.00 | 1016.3 | |
| 20260902011903 | 85 | 248 | 0.0 | 0.0 | 0.00 | 0.00 | 0.00 | 1016.3 | |
| 20260902011403 | 85 | 225 | 0.0 | 2.0 | 0.00 | 0.00 | 0.00 | 1016.0 | |
| 20260902010903 | 85 | 270 | 0.0 | 4.0 | 0.00 | 0.00 | 0.00 | 1016.3 | |
| 20260902010424 | 86 | 224 | 0.0 | 4.0 | 0.00 | 0.00 | 0.00 | 1016.3 | |
| 20260902005904 | 86 | 278 | 0.0 | 1.0 | 0.00 | 0.00 | 0.00 | 1015.6 | |
| 20260902005403 | 86 | 225 | 0.0 | 0.0 | 0.00 | 0.00 | 0.00 | 1015.6 | |
| 20260902004904 | 86 | 315 | 0.0 | 3.0 | 0.00 | 0.00 | 0.00 | 1015.6 | |
| 20260902004403 | 86 | 222 | 0.0 | 4.0 | 0.00 | 0.00 | 0.00 | 1016.0 | |
| 20260902003903 | 86 | 220 | 0.0 | 4.0 | 0.00 | 0.00 | 0.00 | 1016.0 | |
| 20260902003403 | 87 | 202 | 0.0 | 1.0 | 0.00 | 0.00 | 0.00 | 1016.3 | |
| 20260902002903 | 87 | 202 | 0.0 | 1.0 | 0.00 | 0.00 | 0.00 | 1016.0 | |
| 20260902001404 | 88 | 248 | 0.0 | 2.0 | 0.00 | 0.00 | 0.00 | 1016.0 | |
| 20260902000902 | 88 | 202 | 0.0 | 5.0 | 0.00 | 0.00 | 0.00 | 1016.0 | |
| 20260902000425 | 88 | 202 | 0.0 | 5.0 | 0.00 | 0.00 | 0.00 | 1016.3 | |
| 20260901235904 | 89 | 192 | 0.0 | 3.0 | 0.00 | 0.00 | 0.00 | 1016.0 | |
| 20260901235402 | 89 | 180 | 0.0 | 6.0 | 0.00 | 0.00 | 0.00 | 1015.6 | |
| 20260901234903 | 89 | 194 | 0.0 | 6.0 | 0.00 | 0.00 | 0.00 | 1015.6 | |
| 20260901234403 | 89 | 191 | 0.0 | 6.0 | 0.00 | 0.00 | 0.00 | 1015.6 | |
| 20260901233924 | 90 | 180 | 0.0 | 6.0 | 0.00 | 0.00 | 0.00 | 1016.3 | |
| 20260901233403 | 90 | 200 | 0.0 | 6.0 | 0.00 | 0.00 | 0.00 | 1016.3 | |
| 20260901232902 | 90 | 188 | 0.0 | 4.0 | 0.00 | 0.00 | 0.00 | 1016.0 | |
| 20260901232403 | 91 | 259 | 0.0 | 5.0 | 0.00 | 0.00 | 0.00 | 1016.3 | |
| 20260901231904 | 91 | 185 | 0.0 | 6.0 | 0.00 | 0.00 | 0.00 | 1016.0 | |
| 20260901231424 | 91 | 231 | 1.0 | 6.0 | 0.00 | 0.00 | 0.00 | 1016.6 | |
| 20260901230903 | 92 | 261 | 1.0 | 6.0 | 0.00 | 0.00 | 0.00 | 1016.3 | |
| 20260901230402 | 92 | 226 | 0.0 | 6.0 | 0.00 | 0.00 | 0.00 | 1016.0 | |
| 20260901225903 | 93 | 276 | 1.0 | 5.0 | 0.00 | 0.00 | 0.00 | 1016.3 | |
| 20260901225402 | 94 | 275 | 1.0 | 4.0 | 0.00 | 0.00 | 0.00 | 1016.6 | |
| 20260901224903 | 93 | 177 | 1.0 | 3.0 | 0.00 | 0.00 | 0.00 | 1016.6 | |
| 20260901224424 | 94 | 192 | 1.0 | 5.0 | 0.00 | 0.00 | 0.00 | 1016.6 | |
| 20260901223902 | 94 | 190 | 2.0 | 6.0 | 0.00 | 0.00 | 0.00 | 1016.3 | |
| 20260901223403 | 96 | 271 | 2.0 | 7.0 | 0.00 | 0.00 | 0.00 | 1016.6 | |
| 20260901222902 | 96 | 265 | 1.0 | 7.0 | 0.00 | 0.00 | 0.00 | 1016.6 | |
| 20260901222403 | 96 | 258 | 1.0 | 7.0 | 0.00 | 0.00 | 0.00 | 1016.3 | |
| 20260901221903 | 96 | 283 | 0.0 | 10.0 | 0.00 | 0.00 | 0.00 | 1016.3 | |
| 20260901221403 | 95 | 277 | 2.0 | 10.0 | 0.00 | 0.00 | 0.00 | 1016.3 | |
| 20260901220903 | 95 | 269 | 3.0 | 7.0 | 0.00 | 0.00 | 0.00 | 1016.3 | |
| 20260901220402 | 95 | 190 | 2.0 | 8.0 | 0.00 | 0.00 | 0.00 | 1016.0 | |
| 20260901215903 | 97 | 262 | 3.0 | 8.0 | 0.00 | 0.00 | 0.00 | 1016.3 | |
| 20260901215403 | 98 | 286 | 1.0 | 9.0 | 0.00 | 0.00 | 0.00 | 1016.6 | |
| 20260901214903 | 97 | 303 | 5.0 | 9.0 | 0.00 | 0.00 | 0.00 | 1016.6 | |
| 20260901214403 | 96 | 280 | 4.0 | 13.0 | 0.00 | 0.00 | 0.00 | 1016.3 | |
| 20260901212403 | 95 | 273 | 5.0 | 13.0 | 0.00 | 0.00 | 0.00 | 1016.3 | |
| 20260901211903 | 95 | 272 | 5.0 | 15.0 | 0.00 | 0.00 | 0.00 | 1016.3 | |
| 20260901211424 | 95 | 250 | 3.0 | 15.0 | 0.00 | 0.00 | 0.00 | 1016.0 | |
| 20260901210903 | 95 | 284 | 5.0 | 12.0 | 0.00 | 0.00 | 0.00 | 1016.0 | |
| 20260901210403 | 95 | 277 | 6.0 | 12.0 | 0.00 | 0.00 | 0.00 | 1015.6 | |
| 20260901205924 | 95 | 287 | 4.0 | 11.0 | 0.00 | 0.00 | 0.00 | 1016.3 | |
| 20260901205403 | 95 | 293 | 6.0 | 15.0 | 0.00 | 0.00 | 0.00 | 1016.0 | |
| 20260901204903 | 95 | 267 | 5.0 | 15.0 | 0.00 | 0.00 | 0.00 | 1016.6 | |
| 20260901204402 | 96 | 283 | 1.0 | 8.0 | 0.00 | 0.00 | 0.00 | 1016.3 | |
| 20260901203903 | 95 | 236 | 2.0 | 9.0 | 0.00 | 0.00 | 0.00 | 1016.6 | |
| 20260901203402 | 95 | 256 | 3.0 | 9.0 | 0.00 | 0.00 | 0.00 | 1016.6 | |
| 20260901202924 | 94 | 208 | 3.0 | 8.0 | 0.00 | 0.00 | 0.00 | 1016.3 | |
| 20260901202403 | 94 | 197 | 4.0 | 8.0 | 0.00 | 0.00 | 0.00 | 1016.6 | |
| 20260901201903 | 94 | 194 | 3.0 | 11.0 | 0.00 | 0.00 | 0.00 | 1016.3 | |
| 20260901201403 | 95 | 273 | 4.0 | 12.0 | 0.00 | 0.00 | 0.00 | 1016.6 | |
| 20260901200903 | 94 | 270 | 4.0 | 12.0 | 0.00 | 0.00 | 0.00 | 1016.0 | |
| 20260901200403 | 95 | 251 | 3.0 | 7.0 | 0.00 | 0.00 | 0.00 | 1016.0 | |
| 20260901195903 | 94 | 194 | 1.0 | 14.0 | 0.00 | 0.00 | 0.00 | 1016.3 | |
| 20260901195403 | 93 | 241 | 3.0 | 14.0 | 0.00 | 0.00 | 0.00 | 1016.3 | |
| 20260901194903 | 93 | 259 | 3.0 | 13.0 | 0.00 | 0.00 | 0.00 | 1016.6 | |
| 20260901194403 | 93 | 211 | 3.0 | 9.0 | 0.00 | 0.00 | 0.00 | 1016.0 | |
| 20260901193903 | 93 | 274 | 4.0 | 14.0 | 0.00 | 0.00 | 0.00 | 1016.3 | |
| 20260901193402 | 93 | 269 | 5.0 | 16.0 | 0.00 | 0.00 | 0.00 | 1016.3 | |
| 20260901192924 | 93 | 199 | 2.0 | 16.0 | 0.00 | 0.00 | 0.00 | 1016.0 | |
| 20260901192403 | 93 | 267 | 4.0 | 17.0 | 0.00 | 0.00 | 0.00 | 1016.3 | |
| 20260901191903 | 93 | 260 | 5.0 | 17.0 | 0.00 | 0.00 | 0.00 | 1017.0 | |
| 20260901191403 | 93 | 273 | 4.0 | 10.0 | 0.00 | 0.00 | 0.00 | 1016.6 | |
| 20260901190903 | 93 | 278 | 4.0 | 10.0 | 0.00 | 0.00 | 0.00 | 1016.6 | |
| 20260901190403 | 93 | 249 | 3.0 | 9.0 | 0.00 | 0.00 | 0.00 | 1016.6 | |
| 20260901185903 | 93 | 189 | 3.0 | 11.0 | 0.00 | 0.00 | 0.00 | 1016.6 | |
| 20260901185402 | 93 | 214 | 2.0 | 11.0 | 0.00 | 0.00 | 0.00 | 1016.6 | |
| 20260901184924 | 93 | 263 | 4.0 | 9.0 | 0.00 | 0.00 | 0.00 | 1016.3 | |
| 20260901184403 | 93 | 199 | 2.0 | 9.0 | 0.00 | 0.00 | 0.00 | 1017.0 | |
| 20260901183903 | 94 | 240 | 3.0 | 9.0 | 0.00 | 0.00 | 0.00 | 1017.0 | |
| 20260901183403 | 93 | 226 | 2.0 | 9.0 | 0.00 | 0.00 | 0.00 | 1017.0 | |
| 20260901182903 | 93 | 174 | 3.0 | 9.0 | 0.00 | 0.00 | 0.00 | 1016.3 | |
| 20260901182403 | 93 | 207 | 4.0 | 7.0 | 0.00 | 0.00 | 0.00 | 1016.6 | |
| 20260901181903 | 93 | 207 | 2.0 | 8.0 | 0.00 | 0.00 | 0.00 | 1017.0 |